CEB915 VHHH-RPLL

Flight info

Callsign CEB915
Flight time N/A
Altitude 37000
Route DALO1X DALOL DCT NOMAN A461 CAB CAB5R
Aircraft A339/H-SADE1E2E3GHIJ3J5M1P2RWXY/LB2D1

Departure

Time 2026-05-07 12:35
Airport Hong Kong International Airport (VHHH)

Arrival

Time N/A
Airport Ninoy Aquino International Airport (RPLL)
Time Latitude Longitude Altitude Speed Heading
2026-05-07 11:57 22.30988 113.92672 40 ft 0 kts 297°
2026-05-07 12:21 22.30987 113.92674 41 ft 2 kts 291°
2026-05-07 12:21 22.30986 113.92698 41 ft 2 kts 275°
2026-05-07 12:22 22.30980 113.92717 41 ft 2 kts 299°
2026-05-07 12:22 22.30972 113.92734 41 ft 2 kts 295°
2026-05-07 12:22 22.30965 113.92750 41 ft 2 kts 287°
2026-05-07 12:22 22.30964 113.92771 41 ft 2 kts 257°
2026-05-07 12:23 22.30970 113.92789 41 ft 2 kts 233°
2026-05-07 12:23 22.30981 113.92800 41 ft 2 kts 213°
2026-05-07 12:23 22.30987 113.92804 41 ft 1 kts 206°
2026-05-07 12:23 22.30988 113.92805 41 ft 0 kts 206°
2026-05-07 12:26 22.30979 113.92800 40 ft 3 kts 206°
2026-05-07 12:26 22.30949 113.92783 40 ft 6 kts 210°
2026-05-07 12:27 22.30899 113.92753 40 ft 9 kts 208°
2026-05-07 12:27 22.30837 113.92704 40 ft 11 kts 236°
2026-05-07 12:27 22.30805 113.92614 41 ft 14 kts 251°
2026-05-07 12:27 22.30769 113.92504 40 ft 16 kts 250°
2026-05-07 12:28 22.30728 113.92381 41 ft 18 kts 251°
2026-05-07 12:28 22.30693 113.92271 40 ft 19 kts 251°
2026-05-07 12:28 22.30650 113.92136 40 ft 20 kts 250°
2026-05-07 12:28 22.30603 113.91992 40 ft 22 kts 251°
2026-05-07 12:29 22.30551 113.91830 40 ft 23 kts 250°
2026-05-07 12:29 22.30502 113.91671 40 ft 23 kts 250°
2026-05-07 12:29 22.30463 113.91547 40 ft 24 kts 250°
2026-05-07 12:29 22.30405 113.91375 40 ft 24 kts 250°
2026-05-07 12:30 22.30349 113.91200 40 ft 25 kts 251°
2026-05-07 12:30 22.30294 113.91029 40 ft 25 kts 250°
2026-05-07 12:30 22.30235 113.90848 41 ft 25 kts 251°
2026-05-07 12:30 22.30178 113.90672 40 ft 24 kts 251°
2026-05-07 12:31 22.30123 113.90500 41 ft 23 kts 250°
2026-05-07 12:31 22.30071 113.90335 41 ft 23 kts 251°
2026-05-07 12:31 22.30037 113.90231 40 ft 23 kts 250°
2026-05-07 12:31 22.30000 113.90118 40 ft 22 kts 250°
2026-05-07 12:32 22.29837 113.89733 41 ft 6 kts 181°
2026-05-07 12:32 22.29790 113.89746 40 ft 7 kts 160°
2026-05-07 12:33 22.29756 113.89758 40 ft 1 kts 161°
2026-05-07 12:33 22.29736 113.89765 40 ft 4 kts 162°
2026-05-07 12:33 22.29695 113.89780 40 ft 7 kts 161°
2026-05-07 12:34 22.29643 113.89800 40 ft 7 kts 148°
2026-05-07 12:34 22.29637 113.89850 40 ft 7 kts 70°
2026-05-07 12:34 22.29643 113.89868 40 ft 0 kts 70°
2026-05-07 12:34 22.29690 113.90016 41 ft 54 kts 71°
2026-05-07 12:35 22.29855 113.90538 41 ft 111 kts 72°
2026-05-07 12:35 22.30156 113.91458 80 ft 156 kts 71°
2026-05-07 12:35 22.30538 113.92590 591 ft 161 kts 74°
2026-05-07 12:35 22.30898 113.93732 1198 ft 164 kts 74°
2026-05-07 12:36 22.31262 113.94875 1792 ft 164 kts 73°
2026-05-07 12:36 22.32371 113.98342 2659 ft 202 kts 73°
2026-05-07 12:37 22.32839 113.99796 3041 ft 214 kts 73°
2026-05-07 12:37 22.33126 114.00688 3226 ft 224 kts 72°
2026-05-07 12:37 22.33565 114.02050 3632 ft 233 kts 73°
2026-05-07 12:37 22.33854 114.03698 4228 ft 236 kts 92°
2026-05-07 12:38 22.33582 114.05407 4913 ft 236 kts 114°
2026-05-07 12:38 22.32812 114.06839 5551 ft 237 kts 133°
2026-05-07 12:38 22.31570 114.07967 6163 ft 240 kts 152°
2026-05-07 12:38 22.30002 114.08653 6610 ft 252 kts 170°
2026-05-07 12:39 22.28274 114.08818 7226 ft 258 kts 181°
2026-05-07 12:39 22.26470 114.08787 7691 ft 273 kts 183°
2026-05-07 12:39 22.24581 114.08731 8244 ft 284 kts 183°
2026-05-07 12:39 22.22593 114.08687 8963 ft 289 kts 182°
2026-05-07 12:40 22.18751 114.08677 10331 ft 300 kts 175°
2026-05-07 12:40 22.16733 114.09318 10726 ft 318 kts 152°
2026-05-07 12:40 22.15061 114.10806 11101 ft 335 kts 128°
2026-05-07 12:41 22.13887 114.12949 11794 ft 340 kts 116°
2026-05-07 12:41 22.12869 114.15182 12589 ft 342 kts 115°
2026-05-07 12:41 22.11838 114.17461 13390 ft 345 kts 115°
2026-05-07 12:41 22.10788 114.19732 14243 ft 345 kts 116°
2026-05-07 12:42 22.09704 114.22038 15012 ft 348 kts 116°
2026-05-07 12:42 22.08585 114.24316 15586 ft 352 kts 121°
2026-05-07 12:42 22.07158 114.26392 15876 ft 354 kts 131°
2026-05-07 12:42 22.05371 114.28163 15908 ft 354 kts 142°
2026-05-07 12:43 22.03656 114.29535 15909 ft 354 kts 144°
2026-05-07 12:43 22.01566 114.31133 15909 ft 354 kts 144°
2026-05-07 12:43 21.99700 114.32560 15908 ft 354 kts 144°
2026-05-07 12:43 21.97649 114.34152 15940 ft 356 kts 143°
2026-05-07 12:44 21.95657 114.35721 16401 ft 363 kts 143°
2026-05-07 12:44 21.93647 114.37309 17252 ft 363 kts 143°
2026-05-07 12:44 21.91614 114.38911 18024 ft 365 kts 143°
2026-05-07 12:44 21.90026 114.40163 18566 ft 368 kts 143°
2026-05-07 12:45 21.88637 114.41256 19022 ft 370 kts 143°
2026-05-07 12:45 21.87206 114.42391 19488 ft 373 kts 141°
2026-05-07 12:45 21.85397 114.44353 20133 ft 375 kts 125°
2026-05-07 12:45 21.84134 114.46791 20771 ft 376 kts 109°
2026-05-07 12:46 21.83183 114.49415 21402 ft 380 kts 116°
2026-05-07 12:46 21.81623 114.51715 21985 ft 385 kts 133°
2026-05-07 12:46 21.79817 114.53599 22553 ft 388 kts 135°
2026-05-07 12:46 21.77867 114.55594 23120 ft 392 kts 134°
2026-05-07 12:47 21.75946 114.57657 23673 ft 395 kts 133°
2026-05-07 12:47 21.74090 114.59742 24207 ft 398 kts 131°
2026-05-07 12:47 21.72173 114.61965 24750 ft 401 kts 131°
2026-05-07 12:47 21.70508 114.63934 25211 ft 403 kts 130°
2026-05-07 12:48 21.68533 114.66296 25745 ft 406 kts 130°
2026-05-07 12:48 21.66688 114.68516 26228 ft 409 kts 130°
2026-05-07 12:48 21.64808 114.70786 26705 ft 412 kts 130°
2026-05-07 12:48 21.62931 114.73057 27169 ft 414 kts 130°
2026-05-07 12:49 21.61054 114.75330 27616 ft 417 kts 130°
2026-05-07 12:49 21.59135 114.77654 28059 ft 419 kts 130°
2026-05-07 12:49 21.57249 114.79951 28618 ft 418 kts 131°
2026-05-07 12:49 21.55383 114.82207 29172 ft 417 kts 131°
2026-05-07 12:50 21.53460 114.84522 29593 ft 419 kts 131°
2026-05-07 12:50 21.51546 114.86827 29969 ft 422 kts 131°
2026-05-07 12:50 21.49624 114.89146 30344 ft 425 kts 131°
2026-05-07 12:50 21.47657 114.91519 30720 ft 427 kts 131°
2026-05-07 12:51 21.45724 114.93854 31080 ft 429 kts 131°
2026-05-07 12:51 21.43798 114.96178 31428 ft 432 kts 131°
2026-05-07 12:51 21.41818 114.98570 31776 ft 434 kts 131°
2026-05-07 12:51 21.39895 115.00890 32106 ft 436 kts 131°
2026-05-07 12:52 21.37887 115.03312 32442 ft 439 kts 131°
2026-05-07 12:52 21.35860 115.05757 32767 ft 441 kts 131°
2026-05-07 12:52 21.33839 115.08192 33083 ft 443 kts 131°
2026-05-07 12:52 21.31788 115.10664 33396 ft 446 kts 131°
2026-05-07 12:53 21.29752 115.13116 33698 ft 448 kts 131°
2026-05-07 12:53 21.27707 115.15577 33994 ft 450 kts 131°
2026-05-07 12:53 21.25635 115.18072 34285 ft 452 kts 131°
2026-05-07 12:53 21.23584 115.20538 34565 ft 454 kts 131°
2026-05-07 12:54 21.21500 115.23042 34886 ft 455 kts 131°
2026-05-07 12:54 21.19434 115.25526 35276 ft 454 kts 131°
2026-05-07 12:54 21.17420 115.27944 35621 ft 454 kts 131°
2026-05-07 12:54 21.15315 115.30471 35916 ft 455 kts 131°
2026-05-07 12:55 21.13261 115.32937 36172 ft 456 kts 131°
2026-05-07 12:55 21.11288 115.35303 36413 ft 457 kts 131°
2026-05-07 12:55 21.09136 115.37883 36670 ft 459 kts 131°
2026-05-07 12:55 21.07091 115.40334 36901 ft 460 kts 131°
2026-05-07 12:56 21.02895 115.45358 36993 ft 463 kts 131°
2026-05-07 12:56 20.98648 115.50442 36995 ft 463 kts 131°
2026-05-07 12:57 20.94719 115.55142 36995 ft 463 kts 131°
2026-05-07 12:57 20.90305 115.60414 36995 ft 463 kts 131°
2026-05-07 12:58 20.86228 115.65278 36995 ft 463 kts 132°
2026-05-07 12:58 20.81958 115.70369 36995 ft 463 kts 132°
2026-05-07 12:59 20.77705 115.75433 36995 ft 463 kts 132°
2026-05-07 12:59 20.74812 115.78873 36995 ft 463 kts 132°
2026-05-07 13:00 20.70554 115.83939 36995 ft 463 kts 132°
2026-05-07 13:00 20.66314 115.88988 36995 ft 463 kts 132°
2026-05-07 13:01 20.62057 115.94047 36995 ft 463 kts 132°
2026-05-07 13:01 20.57798 115.99099 36995 ft 463 kts 132°
2026-05-07 13:02 20.53556 116.04126 36995 ft 463 kts 132°
2026-05-07 13:02 20.49326 116.09134 36995 ft 463 kts 132°
2026-05-07 13:03 20.45126 116.14101 36995 ft 463 kts 132°
2026-05-07 13:03 20.40796 116.19218 36995 ft 463 kts 132°
2026-05-07 13:04 20.36538 116.24244 36995 ft 463 kts 132°
2026-05-07 13:04 20.32316 116.29224 36995 ft 463 kts 132°
2026-05-07 13:05 20.27972 116.34344 36995 ft 463 kts 132°
2026-05-07 13:05 20.23712 116.39360 36995 ft 463 kts 132°
2026-05-07 13:06 20.13151 116.51773 37004 ft 463 kts 132°
2026-05-07 13:06 20.08843 116.56827 36997 ft 463 kts 132°
2026-05-07 13:07 20.04563 116.61844 36996 ft 463 kts 132°
2026-05-07 13:07 20.00345 116.66784 36995 ft 463 kts 132°
2026-05-07 13:08 19.96035 116.71808 36995 ft 463 kts 132°
2026-05-07 13:08 19.91791 116.76736 36995 ft 463 kts 132°
2026-05-07 13:09 19.87482 116.81734 36998 ft 472 kts 132°
2026-05-07 13:09 19.83104 116.86806 36996 ft 474 kts 132°
2026-05-07 13:10 19.78743 116.91856 36995 ft 474 kts 132°
2026-05-07 13:10 19.74299 116.96996 36995 ft 474 kts 132°
2026-05-07 13:11 19.69919 117.02059 36995 ft 474 kts 132°
2026-05-07 13:11 19.65538 117.07117 36995 ft 474 kts 132°
2026-05-07 13:12 19.61123 117.12210 36995 ft 474 kts 132°
2026-05-07 13:12 19.34879 117.42388 36995 ft 474 kts 132°
2026-05-07 13:13 18.88371 117.95505 37021 ft 474 kts 133°
2026-05-07 13:13 18.53761 118.34731 37009 ft 474 kts 133°
2026-05-07 13:14 18.48221 118.40981 36997 ft 474 kts 133°
2026-05-07 13:14 18.27243 118.64605 37001 ft 474 kts 133°
2026-05-07 13:15 17.84048 119.12965 37016 ft 475 kts 133°
2026-05-07 13:15 17.79575 119.17959 36999 ft 474 kts 133°
2026-05-07 13:16 17.75114 119.22932 36996 ft 474 kts 133°
2026-05-07 13:16 17.70652 119.27900 36995 ft 474 kts 133°
2026-05-07 13:17 17.67239 119.31696 36995 ft 474 kts 133°
2026-05-07 13:17 17.62867 119.36556 36995 ft 474 kts 133°
2026-05-07 13:18 17.24746 119.78780 37024 ft 474 kts 133°
2026-05-07 13:18 17.14696 119.89864 37002 ft 474 kts 133°
2026-05-07 13:19 17.10458 119.94531 36996 ft 474 kts 133°
2026-05-07 13:19 17.05922 119.99524 36995 ft 474 kts 133°
2026-05-07 13:20 17.01702 120.04165 36995 ft 474 kts 133°
2026-05-07 13:20 16.98122 120.08100 36995 ft 474 kts 133°
2026-05-07 13:21 16.96591 120.09782 36995 ft 474 kts 133°